Tracking 29892 objects as of 21-Nov-2024
HD Live streaming from Space Station
objects crossing your sky now

COSMOS 2251 DEB

Track COSMOS 2251 DEB now!
10-day predictions


NORAD ID: 34944
Int'l Code: 1993-036ADX
Perigee: 695.8 km
Apogee: 1,021.8 km
Inclination: 73.7 °
Period: 102.0 minutes
Semi major axis: 7229 km
RCS: 0.0137 m2 (small)
Launch date: June 16, 1993
Source: Commonwealth of Independent States (former USSR) (CIS)
Launch site: PLESETSK MISSILE AND SPACE COMPLEX (PKMTR)

Note: This is SATELLITE DEBRIS
Your satellite tracking list
Your tracking list is empty




NASA's NSSDC Master Catalog

Two Line Element Set (TLE):
1 34944U 93036ADX 24325.09789112  .00002223  00000-0  96099-3 0  9993
2 34944  73.7481 210.3997 0225514 120.9280 241.4241 14.12254306586069
Source of the keplerian elements: AFSPC